Lambertville, MI

7:27 PM EST on January 20, 2017 (GMT -0500)
Toledo Suburban Airport

Weather History for KDUH - December, 2011

Change the Weather History Date:

Thursday, December 15, 2011

  Actual Average (KTOL) Record (KTOL)
Temperature  
Mean Temperature 47 °F -  
Max Temperature 58 °F 38 °F 65 °F (1933)
Min Temperature 36 °F 23 °F -5 °F (1914)
Degree Days  
Heating Degree Days 18    
Moisture  
Dew Point 44 °F    
Average Humidity 79    
Maximum Humidity 91    
Minimum Humidity 62    
Precipitation  
Precipitation 0.00 in - - ()
Sea Level Pressure  
Sea Level Pressure 29.79 in    
Wind  
Wind Speed 15 mph (WSW)    
Max Wind Speed 25 mph    
Max Gust Speed 34 mph    
Visibility 8 miles    
Events Rain    
Averages and records for this station are not official NWS values.
T = Trace of Precipitation, MM = Missing Value Source: NWS Daily Summary

Daily Weather History Graph

Daily Weather History Graph

Search for Another Location

Airport or City:

Trip Planner

Search our weather history database for the weather conditions in past years. The results will help you decide how hot, cold, wet, or windy it might be!

Date:

Astronomy

Dec. 15, 2011 Rise Set
Actual Time 7:54 AM EST 5:04 PM EST
Civil Twilight 7:23 AM EST 5:36 PM EST
Nautical Twilight 6:47 AM EST 6:11 PM EST
Astronomical Twilight 6:14 AM EST 6:45 PM EST
Moon 10:33 PM EST (12/15) 11:06 AM EST (12/15)
Length of Visible Light 10h 13m
Length of Day
9h 10m
Waning Gibbous, 75% of the Moon is Illuminated
Dec 15
Waning Gibbous
Dec 17
Last Quarter
Dec 24
New
Jan 1
First Quarter
Jan 9
Full

Hourly Weather History & Observations

Time (EST) Temp. Windchill Dew Point Humidity Pressure Visibility Wind Dir Wind Speed Gust Speed Precip Events Conditions
12:15 AM 54.9 °F - 51.4 °F 88% 29.81 in 7.0 mi SSW 15.0 mph 21.9 mph N/A Rain Light Rain
12:35 AM 55.4 °F - 51.8 °F 88% 29.81 in 10.0 mi SSW 15.0 mph 28.8 mph N/A   Light Drizzle
12:55 AM 55.4 °F - 51.8 °F 88% 29.81 in 4.0 mi SSW 17.3 mph 26.5 mph N/A Rain Light Rain
1:15 AM 55.4 °F - 52.0 °F 88% 29.80 in 3.0 mi SSW 15.0 mph 24.2 mph N/A Rain Heavy Rain
1:35 AM 55.4 °F - 52.0 °F 88% 29.79 in 5.0 mi SSW 16.1 mph 24.2 mph N/A Rain Rain
1:55 AM 55.2 °F - 52.2 °F 89% 29.77 in 7.0 mi SSW 13.8 mph 24.2 mph N/A Rain Light Rain
2:15 AM 55.4 °F - 52.2 °F 89% 29.74 in 7.0 mi SSW 15.0 mph 24.2 mph N/A Rain Light Rain
2:35 AM 55.6 °F - 52.2 °F 88% 29.75 in 7.0 mi SSW 16.1 mph 25.3 mph N/A Rain Light Rain
2:55 AM 55.8 °F - 52.3 °F 88% 29.75 in 4.0 mi SSW 18.4 mph 29.9 mph N/A   Overcast
3:15 AM 55.9 °F - 52.5 °F 88% 29.75 in 4.0 mi SSW 15.0 mph 26.5 mph N/A   Overcast
3:55 AM 55.9 °F - 52.7 °F 89% 29.73 in 5.0 mi SSW 15.0 mph 26.5 mph N/A   Overcast
4:15 AM 55.8 °F - 52.7 °F 89% 29.72 in 5.0 mi SW 11.5 mph 21.9 mph N/A Rain Rain
4:35 AM 55.8 °F - 52.7 °F 89% 29.71 in 5.0 mi SW 13.8 mph 19.6 mph N/A Rain Light Rain
4:55 AM 55.4 °F - 52.7 °F 91% 29.70 in 4.0 mi SSW 12.7 mph 21.9 mph N/A Rain Rain
5:15 AM 55.4 °F - 52.7 °F 91% 29.69 in 5.0 mi SSW 13.8 mph 21.9 mph N/A Rain Light Rain
5:35 AM 55.6 °F - 52.7 °F 90% 29.69 in 4.0 mi SW 15.0 mph 21.9 mph N/A Rain Rain
5:55 AM 55.8 °F - 52.9 °F 90% 29.70 in 3.0 mi SSW 17.3 mph 25.3 mph N/A Rain Light Rain
6:15 AM 55.9 °F - 53.1 °F 90% 29.69 in 4.0 mi SW 13.8 mph 21.9 mph N/A Rain Rain
6:35 AM 56.3 °F - 53.2 °F 89% 29.69 in 4.0 mi SW 11.5 mph 21.9 mph N/A   Light Drizzle
7:15 AM 56.3 °F - 53.2 °F 89% 29.68 in 4.0 mi SSW 16.1 mph 25.3 mph N/A Rain Rain
7:35 AM 56.5 °F - 53.6 °F 90% 29.68 in 5.0 mi SW 15.0 mph 20.7 mph N/A   Light Drizzle
7:54 AM 56.7 °F - 53.6 °F 89% 29.68 in 7.0 mi SW 15.0 mph 23.0 mph N/A   Light Drizzle
8:34 AM 57.2 °F - 53.6 °F 88% 29.68 in 5.0 mi SW 15.0 mph 25.3 mph N/A   Overcast
8:54 AM 57.2 °F - 53.8 °F 88% 29.68 in 3.0 mi SW 15.0 mph 25.3 mph N/A Rain Light Rain
9:13 AM 57.2 °F - 53.8 °F 88% 29.68 in 7.0 mi SW 12.7 mph 25.3 mph N/A Rain Light Rain
9:34 AM 57.2 °F - 53.8 °F 88% 29.68 in 4.0 mi SW 10.4 mph 17.3 mph N/A   Drizzle
9:53 AM 57.4 °F - 54.1 °F 89% 29.68 in 10.0 mi SW 13.8 mph 21.9 mph N/A   Overcast
10:15 AM 57.6 °F - 54.0 °F 88% 29.68 in 5.0 mi SW 12.7 mph 20.7 mph N/A Rain Rain
10:34 AM 57.4 °F - 54.3 °F 90% 29.67 in 7.0 mi SSW 10.4 mph 21.9 mph N/A Rain Light Rain
10:54 AM 58.1 °F - 54.5 °F 88% 29.67 in 10.0 mi SW 12.7 mph - N/A   Overcast
11:12 AM 57.7 °F - 53.8 °F 87% 29.68 in 5.0 mi WSW 18.4 mph 23.0 mph N/A Rain Light Rain
11:34 AM 57.6 °F - 50.5 °F 77% 29.67 in 10.0 mi WSW 12.7 mph 20.7 mph N/A   Overcast
11:53 AM 57.2 °F - 50.9 °F 79% 29.68 in 10.0 mi WSW 11.5 mph 23.0 mph N/A Rain Light Rain
12:13 PM 56.8 °F - 49.6 °F 77% 29.67 in 10.0 mi WSW 13.8 mph 21.9 mph N/A   Overcast
12:32 PM 56.1 °F - 49.1 °F 77% 29.67 in 10.0 mi West 11.5 mph 23.0 mph N/A Rain Light Rain
12:53 PM 54.3 °F - 48.4 °F 80% 29.69 in 10.0 mi West 20.7 mph 29.9 mph N/A   Overcast
1:31 PM 53.8 °F - 44.6 °F 71% 29.70 in 10.0 mi West 17.3 mph 27.6 mph N/A   Mostly Cloudy
1:53 PM 52.7 °F - 43.9 °F 72% 29.71 in 10.0 mi West 15.0 mph 26.5 mph N/A   Mostly Cloudy
2:33 PM 51.6 °F - 42.3 °F 70% 29.72 in 10.0 mi West 17.3 mph 27.6 mph N/A   Overcast
2:54 PM 50.2 °F - 41.7 °F 73% 29.74 in 10.0 mi West 19.6 mph 28.8 mph N/A   Overcast
3:12 PM 48.4 °F - 39.6 °F 72% 29.75 in 10.0 mi West 21.9 mph 33.4 mph N/A   Overcast
3:32 PM 48.0 °F - 38.8 °F 71% 29.77 in 10.0 mi West 20.7 mph 31.1 mph N/A   Overcast
3:54 PM 47.7 °F - 37.4 °F 68% 29.78 in 10.0 mi West 16.1 mph 28.8 mph N/A   Overcast
4:13 PM 47.3 °F - 37.4 °F 68% 29.79 in 10.0 mi WSW 11.5 mph 24.2 mph N/A   Overcast
4:34 PM 46.6 °F - 37.6 °F 71% 29.80 in 10.0 mi WSW 15.0 mph 26.5 mph N/A   Overcast
4:54 PM 46.0 °F 39.0 °F 36.5 °F 69% 29.82 in 10.0 mi West 17.3 mph 28.8 mph N/A   Overcast
5:14 PM 45.5 °F 38.6 °F 36.3 °F 70% 29.83 in 10.0 mi West 16.1 mph 26.5 mph N/A   Overcast
5:35 PM 45.0 °F 38.5 °F 36.5 °F 72% 29.84 in 10.0 mi West 13.8 mph 21.9 mph N/A   Overcast
5:55 PM 44.6 °F 37.8 °F 35.8 °F 71% 29.85 in 10.0 mi WSW 15.0 mph 21.9 mph N/A   Overcast
6:15 PM 44.1 °F 37.7 °F 35.1 °F 71% 29.86 in 10.0 mi WSW 12.7 mph 26.5 mph N/A   Overcast
6:35 PM 43.7 °F 36.9 °F 34.5 °F 70% 29.87 in 10.0 mi WSW 13.8 mph 21.9 mph N/A   Overcast
6:55 PM 43.0 °F 35.1 °F 33.8 °F 70% 29.89 in 10.0 mi West 17.3 mph 25.3 mph N/A   Overcast
7:15 PM 42.6 °F 35.2 °F 32.7 °F 68% 29.90 in 10.0 mi West 15.0 mph 25.3 mph N/A   Overcast
7:35 PM 42.3 °F 33.8 °F 32.4 °F 68% 29.92 in 10.0 mi West 18.4 mph 27.6 mph N/A   Overcast
7:55 PM 41.9 °F 32.8 °F 32.4 °F 69% 29.93 in 10.0 mi West 20.7 mph 29.9 mph N/A   Overcast
8:15 PM 41.4 °F 32.1 °F 32.9 °F 72% 29.94 in 10.0 mi West 20.7 mph 29.9 mph N/A   Overcast
8:35 PM 39.7 °F 29.2 °F 31.6 °F 73% 29.96 in 10.0 mi West 24.2 mph 34.5 mph N/A   Overcast
8:55 PM 38.7 °F 27.5 °F 29.3 °F 69% 29.97 in 10.0 mi West 25.3 mph 32.2 mph N/A   Overcast
9:15 PM 37.6 °F 27.4 °F 27.7 °F 67% 29.99 in 10.0 mi West 19.6 mph 32.2 mph N/A   Overcast
9:35 PM 36.7 °F 26.3 °F 25.7 °F 64% 30.00 in 10.0 mi West 19.6 mph 33.4 mph N/A   Overcast
9:55 PM 36.7 °F 26.3 °F 24.8 °F 62% 30.02 in 10.0 mi WNW 19.6 mph 27.6 mph N/A   Overcast
10:35 PM 36.7 °F 26.9 °F 25.3 °F 64% 30.04 in 10.0 mi West 17.3 mph 26.5 mph N/A   Overcast
10:55 PM 36.9 °F 27.1 °F 25.3 °F 63% 30.05 in 10.0 mi West 17.3 mph 25.3 mph N/A   Overcast
11:35 PM 37.0 °F 28.1 °F 25.5 °F 63% 30.08 in 10.0 mi West 15.0 mph 21.9 mph N/A   Overcast
11:55 PM 37.0 °F 28.1 °F 25.5 °F 63% 30.08 in 10.0 mi West 15.0 mph 18.4 mph N/A   Overcast